CW5586 Weather Reports


Display with metric or nautical units.
time (UTC)temp
F
wind
direction
speed
MPH
gust
MPH
rain 1hr
in
rain 24hr
in
rain mn
in
humidity
%
barometer
mb
20260905223103 52 0 0.0 2.0 0.31 0.61 0.00 94 1010.9
20260905221604 52 242 1.0 2.0 0.31 0.61 0.00 94 1010.5
20260905214603 53 236 2.0 2.0 0.00 0.53 0.31 94 1010.0
20260905214103 53 234 1.0 2.0 0.00 0.53 0.31 93 1010.0
20260905213603 53 229 1.0 5.0 0.00 0.53 0.31 93 1010.0
20260905211603 53 0 0.0 1.0 0.00 0.53 0.31 93 1009.5
20260905211103 53 318 1.0 2.0 0.00 0.53 0.31 93 1009.5
20260905210603 53 305 1.0 3.0 0.00 0.53 0.31 93 1009.5
20260905210115 53 329 0.0 5.0 0.00 0.53 0.31 93 1009.3
20260905204603 53 327 3.0 9.0 0.00 0.54 0.31 93 1009.0
20260905203103 53 351 3.0 6.0 0.00 0.54 0.31 93 1008.7
20260905201603 53 325 1.0 5.0 0.00 0.54 0.31 93 1008.6
20260905200603 53 323 2.0 3.0 0.00 0.54 0.31 93 1008.3
20260905193603 53 340 1.0 3.0 0.00 0.54 0.31 93 1007.8
20260905193103 53 338 1.0 3.0 0.00 0.54 0.31 93 1007.8
20260905191603 53 33 1.0 2.0 0.00 0.54 0.31 92 1007.6
20260905190115 53 0 0.0 2.0 0.00 0.54 0.31 92 1007.2
20260905184604 54 0 0.0 2.0 0.00 0.54 0.31 92 1006.9
20260905184102 54 0 0.0 2.0 0.00 0.54 0.31 92 1006.7
20260905181103 55 0 0.0 2.0 0.11 0.54 0.31 91 1006.1
20260905180603 56 22 0.0 2.0 0.11 0.54 0.31 91 1006.0
20260905180115 56 22 1.0 3.0 0.11 0.54 0.31 90 1005.9
20260905174603 56 45 2.0 6.0 0.11 0.54 0.31 89 1005.4
20260905174103 57 18 2.0 9.0 0.11 0.54 0.31 88 1005.3
20260905173604 57 319 3.0 10.0 0.11 0.54 0.31 87 1005.3
20260905171603 60 326 5.0 10.0 0.00 0.43 0.20 85 1004.7
20260905171103 60 265 3.0 10.0 0.00 0.43 0.20 86 1004.6
20260905170603 59 267 2.0 10.0 0.00 0.43 0.20 87 1004.4
20260905164103 58 248 2.0 12.0 0.00 0.43 0.20 88 1004.2
20260905163603 58 253 1.0 12.0 0.00 0.43 0.20 88 1004.1
20260905163104 58 352 1.0 17.0 0.00 0.43 0.20 88 1004.1
20260905160115 58 273 1.0 16.0 0.00 0.43 0.20 89 1003.7
20260905154603 58 194 2.0 8.0 0.00 0.43 0.20 88 1003.5
20260905153103 58 315 2.0 13.0 0.01 0.43 0.20 85 1003.5
20260905151104 58 350 6.0 9.0 0.02 0.43 0.20 86 1003.4
20260905150115 58 294 10.0 14.0 0.02 0.43 0.20 86 1003.4
20260905143103 57 350 3.0 15.0 0.02 0.43 0.19 85 1003.4
20260905141103 60 330 9.0 15.0 0.01 0.41 0.17 78 1003.3
20260905133103 60 304 7.0 15.0 0.02 0.41 0.17 83 1002.9
20260905131603 58 205 5.0 15.0 0.02 0.40 0.17 84 1003.0
20260905130603 60 291 5.0 21.0 0.02 0.39 0.16 75 1002.8
20260905130115 61 291 3.0 20.0 0.02 0.39 0.16 72 1002.8
20260905124603 61 199 6.0 18.0 0.02 0.39 0.16 73 1002.8
20260905123603 60 275 13.0 17.0 0.02 0.39 0.16 74 1002.8
20260905121603 61 260 5.0 18.0 0.00 0.38 0.14 73 1002.5
20260905120603 61 248 13.0 18.0 0.00 0.38 0.14 73 1002.6
20260905113104 61 251 8.0 15.0 0.00 0.38 0.14 78 1002.4
20260905111103 59 240 8.0 18.0 0.00 0.38 0.14 83 1002.3
20260905110115 58 211 7.0 21.0 0.00 0.38 0.14 86 1002.2
20260905103603 60 218 8.0 10.0 0.00 0.38 0.14 78 1002.2
20260905103103 60 246 7.0 16.0 0.00 0.38 0.14 77 1002.2
20260905100603 60 240 6.0 18.0 0.00 0.38 0.14 75 1001.8
20260905094603 60 284 3.0 21.0 0.00 0.38 0.14 77 1001.7
20260905093603 60 221 14.0 18.0 0.00 0.38 0.14 77 1001.8
20260905091104 60 134 2.0 15.0 0.00 0.38 0.14 79 1001.5
20260905090603 60 250 8.0 18.0 0.00 0.38 0.14 78 1001.4
20260905090115 61 260 7.0 22.0 0.00 0.38 0.14 75 1001.5
20260905084603 61 273 10.0 22.0 0.00 0.38 0.14 76 1001.3
20260905084103 61 263 13.0 13.0 0.00 0.38 0.14 77 1001.4
20260905083103 60 319 9.0 21.0 0.00 0.38 0.14 78 1001.2
20260905080115 59 333 2.0 20.0 0.01 0.38 0.14 80 1001.1
20260905074603 59 283 8.0 14.0 0.01 0.38 0.14 83 1000.9
20260905074104 59 304 3.0 17.0 0.01 0.38 0.14 84 1000.8
20260905073104 58 219 5.0 10.0 0.01 0.38 0.14 87 1000.7
20260905071603 57 292 2.0 13.0 0.01 0.38 0.14 88 1000.6
20260905071104 57 250 7.0 13.0 0.01 0.38 0.14 87 1000.7
20260905070603 57 304 2.0 13.0 0.00 0.37 0.13 87 1000.6
20260905064103 57 244 7.0 9.0 0.00 0.37 0.13 88 1000.4
20260905063603 57 250 9.0 9.0 0.00 0.37 0.13 88 1000.2
20260905063104 57 246 2.0 13.0 0.00 0.37 0.13 89 1000.2
20260905061603 56 276 2.0 8.0 0.00 0.37 0.13 91 1000.0
20260905060603 56 292 5.0 12.0 0.02 0.37 0.13 91 999.9
20260905054603 55 227 2.0 6.0 0.02 0.37 0.13 93 999.7
20260905054103 55 205 3.0 6.0 0.02 0.37 0.13 93 999.6
20260905050603 54 248 9.0 6.0 0.01 0.35 0.12 93 999.3
20260905041603 54 218 2.0 3.0 0.00 0.35 0.11 93 999.2
20260905041103 54 211 1.0 3.0 0.00 0.35 0.11 94 999.2
20260905034603 54 0 0.0 2.0 0.00 0.35 0.11 94 999.0
20260905034103 54 0 0.0 2.0 0.00 0.35 0.11 94 999.1
20260905033104 54 286 1.0 2.0 0.00 0.35 0.11 94 998.9
20260905031603 54 277 0.0 2.0 0.02 0.35 0.11 94 998.8
20260905030604 54 277 1.0 2.0 0.09 0.35 0.11 94 998.8
20260905024604 54 325 1.0 3.0 0.09 0.35 0.11 94 998.6
20260905023103 54 231 1.0 12.0 0.09 0.35 0.11 94 998.4
20260905021603 54 0 2.0 6.0 0.09 0.33 0.09 94 998.3
20260905021104 54 297 2.0 5.0 0.05 0.29 0.06 94 998.4
20260905020115 54 0 0.0 2.0 0.01 0.25 0.02 93 998.3
20260905013103 54 0 0.0 5.0 0.01 0.25 0.02 92 998.0
20260905011604 54 291 2.0 3.0 0.00 0.24 0.01 93 998.0
20260905011104 54 288 3.0 3.0 0.00 0.24 0.01 93 998.0
20260905010603 54 300 1.0 3.0 0.00 0.24 0.01 93 998.0
20260905010115 54 273 1.0 3.0 0.00 0.24 0.01 93 998.1
20260905004603 54 268 3.0 3.0 0.00 0.24 0.01 94 998.0
20260905004103 54 234 1.0 3.0 0.00 0.24 0.01 94 998.0
20260905001603 55 194 3.0 5.0 0.01 0.25 0.01 94 997.8
20260905000604 55 205 2.0 3.0 0.01 0.25 0.01 94 997.8
20260904234604 55 205 3.0 3.0 0.01 0.25 0.01 93 997.6
20260904231604 55 0 0.0 2.0 0.00 0.25 0.00 93 997.5
20260904224603 55 256 2.0 3.0 0.22 0.29 0.00 93 997.5